Current Version              Previous Version:    01  02  03  04  05  06  07  08  09  10  11  12  13  14  15  16  17  18  19  20  21  22  23  24  25  26  27  28  29  30  
   31  32  33  34  35  36  37  38  39  40  41  42  43  44  45  46  47  48  49  50  51  52  53  54  55  56  57  58  59  60  

[Printable]
147
ASUS44 KFWD 240901
RWRTX
NORTH TEXAS HOURLY WEATHER ROUNDUP
NATIONAL WEATHER SERVICE FORT WORTH TX
400 AM CDT THU APR 24 2014

NOTE: "FAIR" INDICATES FEW OR NO CLOUDS BELOW 12,000 FEET WITH NO
SIGNIFICANT WEATHER AND/OR OBSTRUCTIONS TO VISIBILITY.

TXZ118-119-241000-
DALLAS/FORT WORTH METROPLEX

CITY           SKY/WX    TMP DP  RH WIND       PRES   REMARKS
DFW AIRPORT    CLOUDY    70  62  76 S15       29.75R
DALLAS LOVE    CLOUDY    70  61  73 S16       29.77R
FTW MEACHAM    PTCLDY    69  62  78 S17G26    29.73S
DAL-EXECUTIVE  MOCLDY    69  62  78 S13G20    29.76R
FTW-ALLIANCE   PTCLDY    68  62  81 S13G22    29.74S
FTW-NAS-JRB    PTCLDY    71  60  68 S17G26    29.78R
ARLINGTON      MOCLDY    69  61  75 S15G21    29.76R
$$

TXZ091>094-102>105-117-120-121-131>134-241000-
NORTH CENTRAL TEXAS

CITY           SKY/WX    TMP DP  RH WIND       PRES   REMARKS
DENTON         PTCLDY    69  62  78 S17       29.74F
MCKINNEY       MOCLDY    69  63  81 S14       29.77S
ROCKWALL       MOCLDY    68  63  85 SE9       29.77F
TERRELL        PTCLDY    68  66  93 S7        29.79F
$$

TXZ083>090-098>101-113>116-127>130-139>142-154-155-241000-
WESTERN NORTH TEXAS

CITY           SKY/WX    TMP DP  RH WIND       PRES   REMARKS
WICHITA FALLS  CLEAR     67  61  81 S14G21    29.67R
ABILENE        CLEAR     70  60  70 S16G25    29.70R
ABILENE-DYESS  CLEAR     71  60  69 S23G31    29.68S
MINERAL WELLS  CLEAR     69  61  75 S12G24    29.70F
$$

TXZ143>147-156>162-174-175-241000-
CENTRAL TEXAS

CITY           SKY/WX    TMP DP  RH WIND       PRES   REMARKS
WACO           PTCLDY    67  62  84 S15       29.79S
WACO-MCGREGOR  PTCLDY    66  57  72 S12       29.80S
CORSICANA      MOCLDY    69  62  78 S10       29.80R
MEXIA          CLOUDY    66  62  86 S9        29.79S
TEMPLE         MOCLDY    66  57  72 S14       29.83R
KILLEEN        NOT AVBL
KILLEEN-SKYLRK PTCLDY   N/A N/A N/A SE10      29.79R
LAMPASAS       PTCLDY    65  62  88 S6        29.78S
$$

TXZ095>097-106>112-122>126-135>138-148>153-164>167-241000-
EAST TEXAS

CITY           SKY/WX    TMP DP  RH WIND       PRES   REMARKS
PARIS          PTCLDY    64  57  77 SE8       29.81S
TYLER          CLOUDY    68  63  84 S10       29.81F
LONGVIEW       CLOUDY    67  62  84 S8        29.83R
ATHENS         CLOUDY    68  63  83 S14G20    29.81R
NACOGDOCHES    CLOUDY    66  63  88 S12       29.84S
LUFKIN         CLOUDY    69  64  84 S6        29.84S
$$

SUPPLEMENTAL OBSERVATIONS (CENTRAL)

CITY           SKY/WX    TMP DP  RH WIND       PRES   REMARKS
$$

SUPPLEMENTAL OBSERVATIONS (WEST)

CITY           SKY/WX    TMP DP  RH WIND       PRES   REMARKS
$$

SUPPLEMENTAL OBSERVATIONS (EAST)

CITY           SKY/WX    TMP DP  RH WIND       PRES   REMARKS
$$

SUPPLEMENTAL OBSERVATIONS ARE A COLLECTION OF AUTOMATED INSTRUMENTS
THAT ARE MAINTAINED BY A VARIETY OF FEDERAL AND STATE AGENCIES.
CERTAIN ELEMENTS...SUCH AS HUMIDITY VALUES AND SUSTAINED WIND
SPEEDS...MAY BE APPROXIMATED.